TimeAKDT,TemperatureF,Dew PointF,Humidity,Sea Level PressureIn,VisibilityMPH,Wind Direction,Wind SpeedMPH,Gust SpeedMPH,PrecipitationIn,Events,Conditions,WindDirDegrees,DateUTC
12:53 AM,52.0,36.0,54,29.58,10.0,East,8.1,-,N/A,,Overcast,80,2012-09-16 08:53:00
1:53 AM,51.1,36.0,56,29.56,10.0,ENE,5.8,-,N/A,,Overcast,70,2012-09-16 09:53:00
2:53 AM,50.0,37.0,61,29.54,10.0,ENE,4.6,-,N/A,,Overcast,60,2012-09-16 10:53:00
3:53 AM,51.1,37.0,59,29.53,10.0,East,6.9,-,N/A,,Overcast,80,2012-09-16 11:53:00
4:53 AM,52.0,36.0,54,29.51,10.0,East,8.1,-,N/A,,Mostly Cloudy,80,2012-09-16 12:53:00
5:53 AM,51.1,37.0,59,29.49,10.0,East,6.9,-,N/A,,Mostly Cloudy,80,2012-09-16 13:53:00
6:53 AM,51.1,37.0,59,29.48,10.0,East,9.2,-,N/A,,Mostly Cloudy,80,2012-09-16 14:53:00
7:53 AM,53.1,36.0,52,29.46,10.0,East,8.1,-,N/A,,Mostly Cloudy,90,2012-09-16 15:53:00
8:53 AM,54.0,36.0,51,29.44,10.0,East,9.2,-,N/A,,Overcast,80,2012-09-16 16:53:00
9:53 AM,55.0,37.0,51,29.41,10.0,ENE,9.2,-,N/A,,Overcast,70,2012-09-16 17:53:00
10:53 AM,55.9,37.0,49,29.36,10.0,East,10.4,-,N/A,,Overcast,80,2012-09-16 18:53:00
11:53 AM,55.9,37.0,49,29.34,10.0,East,11.5,-,N/A,,Overcast,90,2012-09-16 19:53:00
12:53 PM,57.0,37.0,47,29.30,10.0,East,5.8,-,N/A,,Overcast,90,2012-09-16 20:53:00
1:53 PM,60.1,37.0,42,29.26,10.0,East,9.2,-,N/A,,Overcast,90,2012-09-16 21:53:00
2:53 PM,61.0,37.9,42,29.24,10.0,East,8.1,-,N/A,,Mostly Cloudy,80,2012-09-16 22:53:00
3:53 PM,61.0,39.0,44,29.23,10.0,Variable,3.5,-,N/A,,Mostly Cloudy,0,2012-09-16 23:53:00
4:53 PM,63.0,39.9,43,29.20,10.0,NE,5.8,-,N/A,,Mostly Cloudy,50,2012-09-17 00:53:00
5:49 PM,62.6,37.4,39,29.16,10.0,SE,13.8,21.9,N/A,,Mostly Cloudy,140,2012-09-17 01:49:00
5:53 PM,63.0,37.9,40,29.17,10.0,SE,16.1,21.9,N/A,,Mostly Cloudy,140,2012-09-17 01:53:00
6:53 PM,61.0,37.9,42,29.17,10.0,SE,12.7,-,N/A,,Mostly Cloudy,140,2012-09-17 02:53:00
7:53 PM,61.0,37.9,42,29.16,10.0,SE,11.5,20.7,N/A,,Mostly Cloudy,130,2012-09-17 03:53:00
8:53 PM,59.0,39.2,48,29.19,10.0,SSW,12.7,23.0,N/A,,Mostly Cloudy,200,2012-09-17 04:53:00
9:53 PM,53.6,37.4,54,29.23,10.0,SSW,6.9,-,N/A,,Mostly Cloudy,200,2012-09-17 05:53:00
10:53 PM,50.0,35.1,57,29.29,10.0,WSW,4.6,-,N/A,,Mostly Cloudy,240,2012-09-17 06:53:00
11:53 PM,50.0,34.0,54,29.31,10.0,Calm,Calm,-,N/A,,Mostly Cloudy,0,2012-09-17 07:53:00